Location: *
(41.3833°S, 177.8333°W)
Time: 03:24:12
(UTC+00:00)

OAO 2 Rocket - Pass Details

Date: 01 April 2020
Orbit: 676 x 746 km, 35.0° (Epoch: 31 May)

Event Time Altitude Azimuth Distance (km) Brightness Sun altitude
Exits shadow 15:50:56 38° 22° (NNE) 1,055 4.2 -26.2°
Drops below altitude 10° 15:54:56 10° 69° (ENE) 2,169 6.5 -25.5°
Sets 15:57:29 0° 76° (ENE) 3,098 7.6 -25.0°
